Location: Bastelaar
(51.0950°N, 3.8602°E)
Time: 08:02:03
(UTC+00:00)

Timation 2 Rocket - Pass Details

Date: 18 November 2025
Orbit: 904 x 1074 km, 70.0° (Epoch: 12 December)

Event Time Altitude Azimuth Distance (km) Brightness Sun altitude
Rises 17:22:14 0° 204° (SSW) 3,846 7.7 -13.8°
Reaches altitude 10° 17:24:51 10° 203° (SSW) 2,901 7.0 -14.2°
Maximum altitude 17:31:42 78° 119° (ESE) 1,101 4.1 -15.3°
Enters shadow 17:38:22 11° 34° (NE) 2,835 6.0 -16.3°
